Weather in Jiwani

Pakistan     25°09′25″N   61°48′50″E
temp.,
°C
wind,
m/s
gust,
m/s
humid.,
%
clouds,
%
prec.,
mm/h
press.,
hPa
HPBL,
m
19 june, sat
sat1923:00+29sse337822 0.0 1001521
02:00+28sse348030 0.0 1001527
05:00+28sse238013 0.0 1001402
08:00+29se33710 0.0 1002644
11:00+33s32510 0.0 10021034
14:00+34ssw64520 0.0 10001028
17:00+32s66570 0.0 999746
20:00+29ssw56710 0.0 999582
20 june, sun
sun2023:00+29ssw44766 0.0 1001601
02:00+28ssw337821 0.0 1000541
05:00+28sse33798 0.0 1000409
08:00+29sse11686 0.0 1002734
11:00+33s22520 0.0 10011052
14:00+34s74510 0.0 10001123
17:00+33s66530 0.0 999762
20:00+29s67710 0.0 999666
21 june, mon
mon2123:00+29sw337535 0.0 1002699
02:00+29ssw11731 0.0 1001528
05:00+28se45740 0.0 1001368
08:00+29se23670 0.0 1003657
11:00+33s32500 0.0 10031124
14:00+34s64470 0.0 10011083
17:00+32s65550 0.0 1001838
20:00+29s66710 0.0 1001612
22 june, tue
tue2223:00+29sw447756 0.0 1003701
02:00+29s117161 0.0 1003802
05:00+28se23710 0.0 1003109
08:00+30se44660 0.0 1005821
11:00+33sse43513 0.0 10051275
14:00+34s64470 0.0 10041152
17:00+32ssw76550 0.0 1003816
20:00+29ssw66703 0.0 1003624
23 june, wed
wed2323:00+29sw44755 0.0 1005568
02:00+28sw347815 0.0 1004527
05:00+28sw23780 0.0 1004337
08:00+29sw33710 0.0 1005549
11:00+32ssw53586 0.0 1005969
14:00+33ssw65540 0.0 1004848
17:00+32ssw1010620 0.0 1001523
20:00+30sw67720 0.0 1003493